STARLINK-32435, 61259

Orbit data source: Space-Track

STARLINK-32435, 61259 is a payload satellite owned by SpaceX/Seattle (US) in LEO that was launched on Wed, 25 Sep 2024 UTC via an FALCON 9 launch vehicle from the Air Force Western Test Range (AFWTR). Payload-class satellites include a variety of spacecraft equipped with specific instruments for various scientific and technological missions. These include communications satellites like Starlink; space stations such as the ISS; scientific satellites like the Hubble; Earth observation satellites from companies like Planet Labs, Umbra, and HawkEye 360; GPS; miniature CubeSats for education and research; and military/defense satellites.

Loading next visibility...
Identifier
61259, 2024-175S
Orbit
LEO
Country
Flag of USUS
Related business
Manufacturer
SpaceX/Seattle
Mission
Operational Commercial Communications
Bus & Motor
STARLINK V2M, Unknown motor
Mass
730 kg wet, ~700 kg dry
Launch date (UTC)
2024-09-25 (1 year ago)
Launch vehicle
FALCON 9
Launch site
Air Force Western Test Range (AFWTR)
Object type
Payload
Rocket body
Debris
Shape & HBR
Box + 2 Pan, 17.7 m
Radar Cross Section
33.884 m², Large (>1 m²)

Expand to show TLE details & history
Last TLE update: 1 day ago

TLE from 1 day ago
0 STARLINK-32435
1 61259U 24175S   25306.07873934 -.00001322  00000-0 -32529-4 0  9994
2 61259  53.1611  66.9363 0001327  61.8732 298.2403 15.30197796 61918
Epoch: 2025-11-02T01:53Z
TLE epoch observation values (Epoch: 2025-11-02T01:53:23.078Z)
Latitude
-0.00003°
Longitude
-3.0095°
Altitude
475.691 km
Speed
7.629 km/s
True Right ascension
04h 27m 44s
True Declination
0° 00' 00"
Sunlit
Object was in full shadow at epoch
Visualization orbit readout
Latitude
Unknown
Longitude
Unknown
Altitude
Unknown
Speed
Unknown
Apparent Right ascension
Unknown
Apparent Declination
Unknown
Sunlit
N/A
Visualization observer readout
Local Sidereal Time
21:49:10
Azimuth
Unknown
Elevation
Unknown
Doppler factor
Unknown
Orbital elements
Apogee altitude
476.387 km
Perigee altitude
474.568 km
Semi-major axis
6,853.615 km
Eccentricity
0.00013
Inclination
53.1611°
RAAN
66.9363°
Arg. of periapsis
61.8732°
True anomaly
298.2269°
Mean anomaly
298.2403°
Eccentric anomaly
298.2336°
Mean motion
3.82528 °/min
Orbital period
94.11 mins
BSTAR
-0.000032529
Loading maneuver chart data...
Computing Atmospheric mass density...
Loading historical data...
Loading historical data...
Loading historical data...
Loading historical data...
Loading historical data...
Loading historical data...
Loading historical data...

Documentation

Showing up to 5 results
|